Погода в Сатке

Россия / Челябинская область     55°02′25″N   59°01′43″E
темп.,
°C
ветер,
м/с
пор.,
м/с
влажн.,
%
обл.,
%
осадки,
мм/ч
давл.,
гПа
погр.,
м
24 июля, сб
сб2423:00+14в0082100 0.0 100512
02:00+12всв1189100 0.1 100414
05:00+12ссв1193100 0.6 100421
08:00+14сз118589 0.1 1005210
11:00+20ссз335310 0.1 10051439
14:00+20сз2352100 0.0 10051639
17:00+19з0159100 0.0 1006269
20:00+16зсз1173100 0.1 100712
25 июля, вс
вс2523:00+15ююз227397 0.1 100835
02:00+11юз118949 0.0 100912
05:00+12юз229366 0.3 101056
08:00+12сз3793100 0.1 1012689
11:00+14сз477563 0.5 10141127
14:00+17ссз57427 0.1 10151969
17:00+18ссз47376 0.1 10162308
20:00+15сз485427 0.0 1017631
26 июля, пн
пн2623:00+8зюз21755 0.0 102013
02:00+7юз228241 0.0 102132
05:00+6юз238555 0.0 102255
08:00+11зсз155871 0.0 1021421
11:00+15сз474357 0.0 10212095
14:00+14зсз474885 0.0 10211896
17:00+15сз484898 0.0 10201758
20:00+12зсз176798 0.0 1020449
27 июля, вт
вт2723:00+9юз238158 0.0 102145
02:00+8ююз34835 0.0 102173
05:00+8ююз35815 0.0 102080
08:00+13юз386274 0.0 1018384
11:00+16з5952100 0.0 10161265
14:00+19з684197 0.0 10152300
17:00+18зсз5104991 0.0 10141920
20:00+13з399279 1.3 1014386
28 июля, ср
ср2823:00+10юз23985 2.4 101459
02:00+9юз2298100 0.0 101447
05:00+10сз1199100 0.2 101423
08:00+10ссз249231 0.4 1015497
11:00+13ссз346195 0.6 10151348
14:00+14с345111 0.0 10151412
17:00+17сз34433 0.0 10141582
20:00+14ююз11640 0.0 101313